Location: Albany
(35.0170°S, 117.8920°E)
Time: 01:38:55
(UTC+08:00)

Explorer 7 - Pass Details

Date: 28 January 2021
Orbit: 484 x 677 km, 50.3° (Epoch: 01 March)

Event Time Altitude Azimuth Distance (km) Brightness Sun altitude
Rises 20:08:39 0° 224° (SW) 2,960 12.3 -10.0°
Reaches altitude 10° 20:11:24 10° 210° (SSW) 2,014 10.7 -10.5°
Maximum altitude 20:15:14 25° 154° (SSE) 1,231 8.7 -11.1°
Enters shadow 20:18:53 10° 98° (E) 1,898 9.1 -11.8°
Drops below altitude 10° 20:18:53 10° 98° (E) 1,899 - -11.8°
Sets 20:21:23 0° 84° (E) 2,754 - -12.2°
